Home   Weather   Mannheim   Past weeks

Flag for Germany Past Weather in Mannheim, Baden-Württemberg, Germany — Yesterday and Last 2 Weeks

Now
48 °F

Overcast.


Feels Like: 43 °F
Forecast: 48 / 53 °F
Wind: 14 mph from Southwest

Location: Frankfurt-M-Flughafen Airport

Current Time: Feb 20, 2017 at 9:18:47 pm

Latest Report: Feb 20, 2017 at 8:50 pm


Visibility: N/A

Pressure: 30.04 "Hg

Humidity: 87%

Dew Point: 45 °F

Location of MannheimLocation

Past Weather in Mannheim — Graph

°F

Mannheim Temperature Yesterday

Maximum temperature yesterday: 48 °F (at 3:50 pm)
Minimum temperature yesterday: 25 °F (at 7:20 am)
Average temperature yesterday: 37 °F

High & Low Weather Summary for the Past Weeks

 TemperatureHumidityPressure
High54 °F (Feb 16, 2:20 pm)100% (Feb 16, 3:50 am)30.60 "Hg (Feb 16, 3:50 am)
Low25 °F (Feb 15, 6:20 am)40% (Feb 14, 3:20 pm)29.65 "Hg (Feb 5, 7:20 pm)
Average39 °F76%30.25 "Hg
* Reported Feb 5 7:20 pm — Feb 20 7:50 pm, Mannheim, Weather by CustomWeather, © 2017

Note: Actual official high and low records may vary slightly from our data, if they occured in-between our weather recording intervals... More about our weather records

Advertising

Mannheim Weather History for the Previous 24 Hours

Scroll right to see more
 ConditionsComfort  
Time TempWeatherWind HumidityBarometerVisibility
7:50 pm
Mon, Feb 20
48 °FLight rain. Low clouds.16 mph87%30.04 "HgN/A
7:20 pm46 °FLight rain. Low clouds.16 mph93%30.04 "Hg3 mi
6:50 pm46 °FLight rain. Low clouds.17 mph93%30.04 "Hg4 mi
6:20 pm46 °FLight rain. Mostly cloudy.15 mph93%30.04 "Hg4 mi
5:50 pm46 °FLight rain. More clouds than sun.13 mph93%30.04 "Hg4 mi
5:20 pm46 °FLight rain. Broken clouds.13 mph93%30.04 "Hg3 mi
4:50 pm46 °FLight rain. More clouds than sun.13 mph93%30.04 "Hg5 mi
4:20 pm48 °FLight rain. Overcast.14 mph87%30.04 "HgN/A
3:50 pm48 °FLight rain. Overcast.14 mph87%30.07 "HgN/A
3:20 pm48 °FLight rain. Partly sunny.16 mph82%30.07 "HgN/A
2:50 pm50 °FLight rain. Partly sunny.20 mph71%30.07 "HgN/A
2:20 pm50 °FPartly sunny.21 mph71%30.07 "HgN/A
1:50 pm50 °FPartly sunny.17 mph71%30.09 "HgN/A
1:20 pm50 °FPartly sunny.18 mph71%30.09 "HgN/A
12:50 pm50 °FBroken clouds.18 mph71%30.09 "HgN/A
12:20 pm50 °FBroken clouds.17 mph71%30.12 "HgN/A
11:50 am50 °FPartly sunny.18 mph71%30.12 "HgN/A
11:20 am48 °FBroken clouds.14 mph76%30.12 "HgN/A
10:50 am48 °FBroken clouds.14 mph76%30.15 "HgN/A
10:20 am46 °FPartly sunny.14 mph82%30.15 "HgN/A
9:50 am46 °FPartly sunny.9 mph82%30.15 "HgN/A
9:20 am45 °FPartly sunny.8 mph81%30.15 "HgN/A
8:50 am43 °FBroken clouds.8 mph87%30.15 "HgN/A
8:20 am43 °FBroken clouds.6 mph87%30.15 "HgN/A
7:50 am43 °FPartly sunny.7 mph81%30.15 "HgN/A
7:20 am41 °FPassing clouds.9 mph87%30.15 "HgN/A
6:50 am43 °FPassing clouds.9 mph87%30.15 "HgN/A
6:20 am43 °FPassing clouds.8 mph87%30.15 "HgN/A
5:50 am43 °FPassing clouds.8 mph87%30.15 "HgN/A
5:20 am41 °FPassing clouds.7 mph93%30.15 "HgN/A
4:50 am41 °FPassing clouds.8 mph87%30.15 "HgN/A
4:20 am41 °FPassing clouds.6 mph93%30.15 "HgN/A
3:50 am41 °FPassing clouds.6 mph93%30.15 "HgN/A
3:20 am41 °FPassing clouds.8 mph93%30.15 "HgN/A
2:50 am43 °FPartly cloudy.7 mph87%30.18 "HgN/A
2:20 am43 °FPartly cloudy.6 mph87%30.18 "HgN/A
1:50 am43 °FPartly cloudy.3 mph87%30.18 "HgN/A
1:20 am41 °FPartly cloudy.2 mph87%30.18 "HgN/A
12:50 am41 °FPartly cloudy.1 mph87%30.18 "HgN/A
12:20 am41 °FPartly cloudy.1 mph93%30.18 "HgN/A
11:50 pm
Sun, Feb 19
41 °FSprinkles. Partly cloudy.1 mph93%30.18 "HgN/A
11:20 pm41 °FPartly cloudy.1 mph93%30.18 "HgN/A
10:50 pm41 °FScattered showers. Partly cloudy.1 mph93%30.18 "HgN/A
10:20 pm43 °FPartly cloudy.3 mph87%30.18 "HgN/A
9:50 pm43 °FPassing clouds.6 mph87%30.18 "HgN/A
9:20 pm45 °FSprinkles. Passing clouds.5 mph76%30.18 "HgN/A
Weather by CustomWeather, © 2017

See weather overviewHow to use our weather pages